Atqasuk Edward Burnell Sr Mem, AK

9:33 AM AKDT on July 19, 2019 (GMT -0800)
Atqasuk Edward Burnell Sr Mem

Weather History for PATQ - May, 2019

Change the Weather History Date:

Tuesday, May 21, 2019

  Actual Average (PABR) Record (PABR)
Temperature  
Mean Temperature 32 °F 24 °F  
Max Temperature 36 °F 28 °F 47 °F (2015)
Min Temperature 28 °F 20 °F 4 °F (1924)
Degree Days  
Heating Degree Days 33 41  
Month to date heating degree days 980  
Since 1 July heating degree days 18140  
Cooling Degree Days 0 0  
Month to date cooling degree days 0  
Year to date cooling degree days 0  
Moisture  
Dew Point 30 °F    
Average Humidity 90    
Maximum Humidity 100    
Minimum Humidity 79    
Precipitation  
Precipitation 0.00 in 0.01 in 0.24 in (1933)
Month to date precipitation 0.11  
Year to date precipitation 0.63  
Snow  
Snow 0.00 in 0.10 in 3.60 in (1933)
Month to date snowfall 1.9  
Since 1 July snowfall 36.2  
Snow Depth -    
Sea Level Pressure  
Sea Level Pressure 30.03 in    
Wind  
Wind Speed 7 mph (ENE)    
Max Wind Speed 10 mph    
Max Gust Speed -    
Visibility 7 miles    
Events Fog , Snow    
T = Trace of Precipitation, MM = Missing Value Source: NWS Daily Summary

Daily Weather History Graph

Daily Weather History Graph

Search for Another Location

Airport or City:

Astronomy

May. 21, 2019 Rise Set
Actual Time 2:58 AM AKDT 1:53 AM AKDT
Civil Twilight Sun does not set Sun does not set
Nautical Twilight Sun does not set Sun does not set
Astronomical Twilight Sun does not set Sun does not set
Moon No Moon Rise No Moon Set
Length of Visible Light 24h 00m
Length of Day
22h 55m
Waning Gibbous, 90% of the Moon is Illuminated
May 21
Waning Gibbous
May 26
Last Quarter
Jun 3
New
Jun 9
First Quarter
Jun 17
Full

Hourly Weather History & Observations

Time (AKDT) Temp. Windchill Dew Point Humidity Pressure Visibility Wind Dir Wind Speed Gust Speed Precip Events Conditions
12:24 AM 30.2 °F 21.9 °F 28.4 °F 93% 29.98 in 8.0 mi East 9.2 mph - 0.00 in Snow Light Snow
12:56 AM 30.0 °F 21.7 °F 28.0 °F 92% 30.00 in 4.0 mi East 9.2 mph - 0.00 in Snow Light Snow
1:56 AM 30.0 °F 23.2 °F 28.0 °F 92% 30.00 in 9.0 mi East 6.9 mph - 0.00 in   Partly Cloudy
2:56 AM 30.0 °F 22.4 °F 28.0 °F 92% 30.00 in 6.0 mi ENE 8.1 mph - 0.00 in Snow Light Snow
3:00 AM 30.2 °F 21.9 °F 28.4 °F 93% 29.98 in 5.0 mi ENE 9.2 mph - 0.00 in Snow Light Snow
3:22 AM 30.2 °F 21.9 °F 28.4 °F 93% 29.98 in 6.0 mi ENE 9.2 mph - 0.00 in Snow Light Snow
3:25 AM 28.4 °F 20.4 °F 28.4 °F 100% 29.98 in 7.0 mi ENE 8.1 mph - 0.00 in Snow Light Snow
3:56 AM 28.9 °F 21.9 °F 28.0 °F 96% 30.00 in 9.0 mi ENE 6.9 mph - 0.00 in Snow Light Snow
4:30 AM 30.2 °F 22.6 °F 28.4 °F 93% 29.98 in 9.0 mi ENE 8.1 mph - 0.00 in   Partly Cloudy
4:56 AM 30.0 °F 22.4 °F 28.0 °F 92% 30.00 in 10.0 mi East 8.1 mph - 0.00 in   Partly Cloudy
5:18 AM 30.2 °F 23.4 °F 28.4 °F 93% 29.98 in 10.0 mi East 6.9 mph - N/A   Mostly Cloudy
5:40 AM 30.2 °F 21.9 °F 28.4 °F 93% 29.98 in 6.0 mi East 9.2 mph - N/A   Overcast
5:54 AM 30.2 °F 21.3 °F 28.4 °F 93% 29.98 in 1.8 mi East 10.4 mph - N/A   Overcast
5:56 AM 30.0 °F 21.1 °F 28.9 °F 96% 30.00 in 1.8 mi East 10.4 mph - N/A   Overcast
6:03 AM 30.2 °F 22.6 °F 28.4 °F 93% 29.98 in 3.0 mi ENE 8.1 mph - N/A   Overcast
6:45 AM 30.2 °F 25.4 °F 28.4 °F 93% 29.98 in 10.0 mi East 4.6 mph - N/A   Overcast
6:56 AM 30.0 °F 24.1 °F 28.9 °F 96% 30.00 in 10.0 mi East 5.8 mph - N/A   Mostly Cloudy
7:33 AM 30.2 °F 23.4 °F 28.4 °F 93% 29.98 in 10.0 mi ENE 6.9 mph - N/A   Mostly Cloudy
7:56 AM 30.9 °F 26.2 °F 28.9 °F 92% 30.01 in 10.0 mi ENE 4.6 mph - N/A   Mostly Cloudy
8:39 AM 32.0 °F 24.8 °F 28.4 °F 87% 29.99 in 10.0 mi East 8.1 mph - N/A   Scattered Clouds
8:56 AM 33.1 °F 26.1 °F 28.0 °F 82% 30.01 in 10.0 mi East 8.1 mph - N/A   Clear
9:10 AM 32.0 °F 25.6 °F 28.4 °F 87% 29.99 in 10.0 mi ENE 6.9 mph - N/A   Partly Cloudy
9:56 AM 33.1 °F 27.7 °F 28.0 °F 82% 30.02 in 10.0 mi ESE 5.8 mph - N/A   Clear
10:56 AM 32.0 °F 26.4 °F 28.0 °F 85% 30.01 in 10.0 mi ESE 5.8 mph - N/A   Clear
11:56 AM 33.1 °F 28.7 °F 28.0 °F 82% 30.01 in 10.0 mi SE 4.6 mph - N/A   Clear
12:56 PM 33.1 °F 28.7 °F 28.0 °F 82% 30.02 in 10.0 mi East 4.6 mph - N/A   Clear
1:56 PM 34.0 °F 31.0 °F 28.9 °F 82% 30.03 in 10.0 mi SSE 3.5 mph - N/A   Clear
2:56 PM 34.0 °F 29.8 °F 28.9 °F 82% 30.03 in 10.0 mi SSE 4.6 mph - N/A   Clear
2:59 PM 33.8 °F 29.6 °F 28.4 °F 81% 30.01 in 2.5 mi Variable 4.6 mph - N/A   Haze
3:13 PM 35.6 °F 32.8 °F 30.2 °F 81% 30.01 in 10.0 mi Variable 3.5 mph - N/A   Clear
3:56 PM 34.0 °F 31.0 °F 28.9 °F 82% 30.05 in 10.0 mi SE 3.5 mph - N/A   Clear
4:56 PM 36.0 °F - 30.0 °F 79% 30.05 in 10.0 mi Calm Calm - N/A   Clear
5:56 PM 35.1 °F 32.2 °F 30.0 °F 82% 30.06 in 10.0 mi East 3.5 mph - N/A   Clear
6:56 PM 33.1 °F 26.9 °F 30.9 °F 92% 30.06 in 10.0 mi ESE 6.9 mph - N/A   Partly Cloudy
7:15 PM 35.6 °F 29.9 °F 32.0 °F 87% 30.04 in 10.0 mi East 6.9 mph - N/A   Mostly Cloudy
7:56 PM 35.1 °F 30.1 °F 30.9 °F 85% 30.07 in 10.0 mi East 5.8 mph - N/A   Overcast
8:41 PM 35.6 °F 30.7 °F 30.2 °F 81% 30.05 in 10.0 mi East 5.8 mph - N/A   Overcast
8:56 PM 35.1 °F 31.0 °F 32.0 °F 89% 30.08 in 10.0 mi East 4.6 mph - N/A   Overcast
9:46 PM 33.8 °F 28.6 °F 32.0 °F 93% 30.06 in 1.8 mi ENE 5.8 mph - N/A   Overcast
9:48 PM 33.8 °F 29.6 °F 30.2 °F 87% 30.06 in 0.8 mi NE 4.6 mph - 0.00 in   Overcast
9:52 PM 33.8 °F 28.6 °F 30.2 °F 87% 30.07 in 0.2 mi ENE 5.8 mph - 0.00 in Fog Fog
9:56 PM 34.0 °F 29.8 °F 30.9 °F 89% 30.09 in 0.2 mi East 4.6 mph - 0.00 in Fog Fog
10:25 PM 33.8 °F 28.6 °F 32.0 °F 93% 30.07 in 0.8 mi NE 5.8 mph - 0.00 in   Overcast
10:31 PM 33.8 °F 28.6 °F 32.0 °F 93% 30.07 in 2.0 mi NE 5.8 mph - 0.00 in   Overcast
10:37 PM 33.8 °F 27.7 °F 32.0 °F 93% 30.07 in 1.0 mi NE 6.9 mph - 0.00 in   Overcast
10:44 PM 33.8 °F 27.7 °F 32.0 °F 93% 30.07 in 0.8 mi NE 6.9 mph - 0.00 in   Overcast
10:48 PM 33.8 °F 27.7 °F 32.0 °F 93% 30.07 in 3.0 mi NE 6.9 mph - 0.00 in   Overcast
10:52 PM 33.8 °F 27.0 °F 32.0 °F 93% 30.07 in 1.8 mi ENE 8.1 mph - 0.00 in   Overcast
10:56 PM 33.1 °F 26.1 °F 32.0 °F 96% 30.10 in 0.5 mi NE 8.1 mph - 0.00 in Fog Fog
11:13 PM 33.8 °F 27.0 °F 32.0 °F 93% 30.08 in 2.0 mi NNE 8.1 mph - 0.00 in   Mostly Cloudy
11:21 PM 33.8 °F 26.4 °F 32.0 °F 93% 30.08 in 10.0 mi NNE 9.2 mph - 0.00 in   Mostly Cloudy
11:28 PM 33.8 °F 26.4 °F 32.0 °F 93% 30.08 in 9.0 mi NNE 9.2 mph - 0.00 in   Scattered Clouds
11:56 PM 33.1 °F 25.5 °F 32.0 °F 96% 30.11 in 10.0 mi NE 9.2 mph - 0.00 in   Clear